Location: Newark
(45.5000°N, 11.4167°E)
Time: 12:26:06
(UTC+00:00)

Transit 2A Rocket - Pass Details

Date: 27 August 2019
Orbit: 594 x 909 km, 66.7° (Epoch: 22 October)

Event Time Altitude Azimuth Distance (km) Brightness Sun altitude
Rises 01:28:59 0° 330° (NNW) 3,027 8.4 -26.8°
Reaches altitude 10° 01:31:27 10° 337° (NNW) 2,065 7.6 -26.5°
Maximum altitude 01:35:55 46° 51° (NE) 834 5.5 -26.0°
Drops below altitude 10° 01:40:06 10° 126° (SE) 1,942 7.1 -25.6°
Sets 01:42:22 0° 132° (SE) 2,827 7.9 -25.3°
